Saskatoon, Saskatchewan

1:56 AM CST on April 22, 2018 (GMT -0600)
Saskatoon

Weather History for CYXE - February, 2013

Change the Weather History Date:

Friday, February 8, 2013

  Actual Average Record
Temperature  
Mean Temperature 12 °F -  
Max Temperature 17 °F 20 °F 35 °F (2009)
Min Temperature 6 °F 0 °F -23 °F (2007)
Degree Days  
Heating Degree Days 54    
Moisture  
Dew Point 10 °F    
Average Humidity 91    
Maximum Humidity 100    
Minimum Humidity 85    
Precipitation  
Precipitation 0.00 in 0.02 in - ()
Sea Level Pressure  
Sea Level Pressure 30.01 in    
Wind  
Wind Speed 6 mph ()    
Max Wind Speed 12 mph    
Max Gust Speed -    
Visibility 8.0 miles    
Events Fog    
Averages and records for this station are not official NWS values.
T = Trace of Precipitation, MM = Missing Value Source: Averaged Metar Reports

Daily Weather History Graph

Daily Weather History Graph

Search for Another Location

Airport or City:

Astronomy

Feb. 08, 2013 Rise Set
Actual Time 8:34 AM CST 6:07 PM CST
Civil Twilight 7:58 AM CST 6:43 PM CST
Nautical Twilight 7:18 AM CST 7:23 PM CST
Astronomical Twilight 6:39 AM CST 8:03 PM CST
Moon 7:11 AM CST (2/8) 4:40 PM CST (2/8)
Length of Visible Light 10h 45m
Length of Day
9h 33m
Waning Crescent, 3% of the Moon is Illuminated
Feb 8
Waning Crescent
Feb 10
New
Feb 17
First Quarter
Feb 25
Full
Mar 4
Last Quarter

Hourly Weather History & Observations

Time (CST) Temp. Windchill Dew Point Humidity Pressure Visibility Wind Dir Wind Speed Gust Speed Precip Events Conditions
12:00 AM 17.6 °F 7.3 °F 15.8 °F 93% 30.05 in 10.0 mi ESE 8.1 mph - N/A   Overcast
12:22 AM 17.6 °F 8.2 °F 15.8 °F 93% 30.05 in 10.0 mi ESE 6.9 mph - N/A   Overcast
1:00 AM 17.6 °F 9.3 °F 15.8 °F 93% 30.05 in 10.0 mi SSE 5.8 mph - N/A   Overcast
1:27 AM 17.6 °F 8.2 °F 15.8 °F 93% 30.04 in 15.0 mi SE 6.9 mph - N/A   Overcast
2:00 AM 17.6 °F 12.3 °F 15.8 °F 93% 30.03 in 15.0 mi ESE 3.5 mph - N/A   Overcast
3:00 AM 14.0 °F 5.1 °F 10.4 °F 86% 30.02 in 15.0 mi ESE 5.8 mph - N/A   Scattered Clouds
4:00 AM 12.2 °F 2.9 °F 12.2 °F 100% 30.02 in 15.0 mi ESE 5.8 mph - N/A   Scattered Clouds
4:45 AM 10.4 °F 2.2 °F 8.6 °F 92% 30.01 in 15.0 mi ESE 4.6 mph - N/A   Scattered Clouds
5:00 AM 10.4 °F 0.8 °F 8.6 °F 92% 30.01 in 10.0 mi SSE 5.8 mph - N/A   Scattered Clouds
5:16 AM 8.6 °F 2.0 °F 6.8 °F 92% 30.01 in 8.0 mi South 3.5 mph - N/A   Overcast
5:38 AM 12.2 °F 4.3 °F 8.6 °F 85% 30.01 in 4.0 mi South 4.6 mph - N/A   Overcast
5:53 AM 12.2 °F 0.7 °F 10.4 °F 92% 30.00 in 2.5 mi South 8.1 mph - N/A   Overcast
6:00 AM 14.0 °F 2.9 °F 12.2 °F 93% 30.00 in 2.0 mi South 8.1 mph - N/A   Mist
6:13 AM 15.8 °F 6.1 °F 14.0 °F 93% 30.00 in 1.0 mi South 6.9 mph - N/A   Mist
6:19 AM 15.8 °F 6.1 °F 14.0 °F 93% 30.00 in 0.8 mi South 6.9 mph - N/A   Mist
6:33 AM 15.8 °F 6.1 °F 14.0 °F 93% 30.00 in 0.5 mi SSE 6.9 mph - N/A Fog Light Freezing Fog
7:00 AM 15.8 °F 4.2 °F 14.0 °F 93% 29.99 in 0.5 mi South 9.2 mph - N/A Fog Light Freezing Fog
7:45 AM 14.0 °F 6.5 °F 12.2 °F 93% 30.00 in 0.4 mi SSW 4.6 mph - N/A Fog Light Freezing Fog
8:00 AM 14.0 °F 6.5 °F 12.2 °F 93% 30.00 in 0.4 mi SW 4.6 mph - N/A Fog Light Freezing Fog
8:28 AM 14.0 °F 5.1 °F 10.4 °F 86% 30.00 in 0.8 mi South 5.8 mph - N/A   Mist
8:44 AM 12.2 °F 1.7 °F 10.4 °F 92% 29.99 in 2.0 mi SSE 6.9 mph - N/A   Scattered Clouds
9:00 AM 12.2 °F 1.7 °F 8.6 °F 85% 29.99 in 2.5 mi South 6.9 mph - N/A   Mostly Cloudy
9:28 AM 10.4 °F -1.5 °F 8.6 °F 92% 30.00 in 4.0 mi SSW 8.1 mph - N/A   Mostly Cloudy
10:00 AM 8.6 °F -1.3 °F 6.8 °F 92% 30.01 in 3.0 mi WSW 5.8 mph - N/A   Mostly Cloudy
10:23 AM 8.6 °F -3.7 °F 5.0 °F 85% 30.01 in 2.0 mi WSW 8.1 mph - N/A   Mostly Cloudy
11:00 AM 6.8 °F -3.5 °F 5.0 °F 92% 30.01 in 1.5 mi WSW 5.8 mph - N/A   Overcast
11:21 AM 6.8 °F -4.8 °F 3.2 °F 85% 30.02 in 4.0 mi WSW 6.9 mph - N/A   Mostly Cloudy
12:00 PM 6.8 °F -4.8 °F 5.0 °F 92% 30.01 in 8.0 mi SW 6.9 mph - N/A   Mostly Cloudy
1:00 PM 8.6 °F -4.7 °F 6.8 °F 92% 30.01 in 8.0 mi WSW 9.2 mph - N/A   Mostly Cloudy
2:00 PM 12.2 °F -0.2 °F 8.6 °F 85% 30.01 in 2.0 mi SW 9.2 mph - N/A   Overcast
2:54 PM 12.2 °F -0.2 °F 10.4 °F 92% 29.99 in 10.0 mi SW 9.2 mph - N/A   Mostly Cloudy
3:00 PM 12.2 °F -0.2 °F 10.4 °F 92% 29.99 in 10.0 mi SW 9.2 mph - N/A   Mostly Cloudy
3:22 PM 12.2 °F 1.7 °F 10.4 °F 92% 29.99 in 15.0 mi SSW 6.9 mph - N/A   Mostly Cloudy
4:00 PM 12.2 °F -1.8 °F 10.4 °F 92% 30.00 in 15.0 mi WSW 11.5 mph - N/A   Partly Cloudy
5:00 PM 12.2 °F -0.2 °F 8.6 °F 85% 30.00 in 15.0 mi SW 9.2 mph - N/A   Clear
6:00 PM 10.4 °F -2.4 °F 8.6 °F 92% 29.99 in 15.0 mi SW 9.2 mph - N/A   Partly Cloudy
7:00 PM 6.8 °F -8.6 °F 5.0 °F 92% 30.00 in 15.0 mi SW 11.5 mph - N/A   Scattered Clouds
8:00 PM 6.8 °F -5.9 °F 5.0 °F 92% 30.01 in 15.0 mi WSW 8.1 mph - N/A   Mostly Cloudy
9:00 PM 10.4 °F -1.5 °F 8.6 °F 92% 29.99 in 15.0 mi SW 8.1 mph - N/A   Overcast
10:00 PM 10.4 °F -1.5 °F 6.8 °F 85% 30.01 in 15.0 mi SW 8.1 mph - N/A   Mostly Cloudy
11:00 PM 8.6 °F -3.7 °F 6.8 °F 92% 30.00 in 15.0 mi SW 8.1 mph - N/A   Mostly Cloudy